Location: Campbell Lake
(32.1204°N, 97.6289°W)
Time: 09:27:10
(UTC+00:00)

ARIANE 6 FM1 Upper Stage - Pass Details

Date: 12 December 2025
Orbit: 522 x 610 km, 62.0° (Epoch: 14 January)

Event Time Altitude Azimuth Distance (km) Brightness Sun altitude
Rises 12:52:15 0° 208° (SSW) 2,715 6.1 -6.6°
Reaches altitude 10° 12:54:29 10° 208° (SSW) 1,810 5.2 -6.1°
Maximum altitude 12:58:32 82° 122° (ESE) 546 2.7 -5.3°
Drops below altitude 10° 13:02:32 10° 33° (NNE) 1,778 5.3 -4.6°
Sets 13:04:42 0° 33° (NNE) 2,662 6.2 -4.1°
